Weather in Boikivske

Ukraine / Donetsk Region     47°24′39″N   38°00′52″E
temp.,
°C
wind,
m/s
gust,
m/s
humid.,
%
clouds,
%
prec.,
mm/h
press.,
hPa
HPBL,
m
4 march, thu
thu423:000wnw33730 0.0 102574
02:000wsw35730 0.0 1025102
05:00−1wsw36760 0.0 1024135
08:00+2wsw610620 0.0 1023498
11:00+6wsw710480 0.0 1021967
14:00+7sw811490 0.0 10191181
17:00+5sw813640 0.0 1016657
20:00+3sw715745 0.0 1016552
5 march, fri
fri523:00+3sw7157893 0.0 1015547
02:00+2sw8168269 0.0 1014580
05:00+2sw7148884 0.0 1013539
08:00+4wsw7128992 0.0 1014554
11:00+5sw71083100 0.0 1014685
14:00+7sw6974100 0.0 1013919
17:00+6ssw6128199 0.0 1011538
20:00+4ssw61488100 0.0 1012441
6 march, sat
sat623:00+4sw61293100 0.0 1011338
02:00+4wsw3893100 0.0 1012211
05:00+4wnw3893100 0.4 1013392
08:00+3nw4792100 1.0 1015469
11:00+3nw7866100 0.1 1016931
14:00+3nnw6858100 0.1 10161218
17:00+2nw5850100 0.0 10181220
20:00−1nw81248100 0.0 1020940
7 march, sun
sun723:00−2nw710480 0.0 10221317
02:00−2nw610520 0.0 10231266
05:00−3nw59530 0.0 1024922
08:00−2wnw68470 0.0 1026873
11:00+1w57360 0.0 10251181
14:00+2wsw710360 0.0 10221441
17:00+1wsw511510 0.0 1020532
20:00−1sw613592 0.0 1019552
8 march, mon
mon823:00−1wsw815591 0.0 1018588
02:00−1wsw815630 0.0 1016613
05:00−1wsw7137299 0.0 1014514
08:00+1w7116371 0.0 1015714
11:00+5w8125099 0.0 10141672
14:00+6w8124799 0.0 10141992
17:00+4w41059100 0.0 1013792
20:00+1wnw3778100 0.0 1014703